テンペル第2彗星

10P/Tempel 2 (2026)

English version
Home page
Updated on January 31, 2026

---------------------------------------------------------------------

・ プロフィール

・ 写真集

・ 軌道要素

Epoch 2024 Mar. 31.0 TT = JDT 2460400.5
T 2026 Aug. 2.14737 TT                                  Rudenko
q   1.4160714            (2000.0)            P               Q
n   0.18389389     Peri.  195.52491     +0.68106132     +0.70863948
a   3.0626064      Node   117.80992     -0.64766143     +0.70045595
e   0.5376254      Incl.   12.03005     -0.34159938     +0.08480296
P   5.36
>From 4629 observations 2003 Mar. 7-2024 Feb. 18, mean residual 0".6.
     Nongravitational parameters A1 = +0.02, A2 = +0.0006.

・ 星図

・ 光度変化

        H = 13.6  G = 0.15             [    ,-172]  (              〜2026年 2月11日)
        m1 = 4.6 + 5 logΔ + 35 log r  [-172,   0]  (2026年 2月11日〜2026年 8月 2日)
        m1 = 7.2 + 5 logΔ + 18 log r  [   0, 405]  (2026年 8月 2日〜2027年 9月11日)
        H = 13.6  G = 0.15             [ 405,    ]  (2027年 9月11日〜              )

---------------------------------------------------------------------

軌道要素はM.P.E.C. 2024-D126に掲載されたものです。
星図はステラナビゲータ Ver.10 (アストロアーツ) で作成したものです。
光度グラフはComet for Windowsで作成したものです。

---------------------------------------------------------------------

Copyright(C) Seiichi Yoshida (comet@aerith.net). All rights reserved.